Powrót do katalogu

NOAA 16 DEB

AktywnyPO
NORAD 41404·DEBRIS·🇺🇸 United States

Wystrzelony Sep 21, 2000 z Vandenberg Space Force Base

Loading…

Następne Przeloty (najbliższe 24 godziny)

TLE

ŚwieżeSource: Space-Track

Epoka: Sep 14, 2026, 12:29 UTC

1 41404U 00055KH  26257.52047819  .00004370  00000-0  10540-2 0  9997
2 41404  99.0065 140.9767 0023055 254.8218 105.0426 14.53595985551006

Śledź NOAA 16 DEB w czasie rzeczywistym z AllMySat

Download on the App Store